Weather History for VILK - October, 2012

Change the Weather History Date:

Wednesday, October 17, 2012

  Actual Average Record
Temperature  
Mean Temperature 76 °F -  
Max Temperature 89 °F 81 °F 100 °F (2007)
Min Temperature 64 °F 63 °F 60 °F (2014)
Cooling Degree Days 12    
Growing Degree Days 26 (Base 50)    
Moisture  
Dew Point 66 °F    
Average Humidity 70    
Maximum Humidity 94    
Minimum Humidity 43    
Precipitation  
Precipitation 0.00 in - - ()
Sea Level Pressure  
Sea Level Pressure 29.94 in    
Wind  
Wind Speed 3 mph ()    
Max Wind Speed 9 mph    
Max Gust Speed -    
Visibility 2.5 miles    
Events      
Averages and records for this station are not official NWS values.
T = Trace of Precipitation, MM = Missing Value Source: Averaged Metar Reports

Daily Weather History Graph

Daily Weather History Graph

Search for Another Location

Airport or City:

Trip Planner

Search our weather history database for the weather conditions in past years. The results will help you decide how hot, cold, wet, or windy it might be!

Date:

Astronomy

Oct. 17, 2012 Rise Set
Actual Time 6:07 AM IST 5:36 PM IST
Civil Twilight 5:43 AM IST 5:59 PM IST
Nautical Twilight 5:16 AM IST 6:26 PM IST
Astronomical Twilight 4:49 AM IST 6:53 PM IST
Moon 7:53 AM IST (10/17) 7:02 PM IST (10/17)
Length of Visible Light 12h 15m
Length of Day
11h 29m
Waxing Crescent, 5% of the Moon is Illuminated
Oct 17
Waxing Crescent
Oct 22
First Quarter
Oct 30
Full
Nov 7
Last Quarter
Nov 14
New

Hourly Weather History & Observations

Time (IST) Temp. Heat Index Dew Point Humidity Pressure Visibility Wind Dir Wind Speed Gust Speed Precip Events Conditions
1:00 AM 75.2 °F - 71.6 °F 89% 29.95 in 1.9 mi Variable 2.3 mph - N/A   Haze
2:00 AM 73.4 °F - 69.8 °F 88% 29.92 in 1.9 mi Variable 2.3 mph - N/A   Mist
3:00 AM 71.6 °F - 69.8 °F 94% 29.92 in 1.9 mi Variable 2.3 mph - N/A   Mist
4:00 AM 71.6 °F - 69.8 °F 94% 29.92 in 1.9 mi Variable 2.3 mph - N/A   Mist
5:00 AM 69.8 °F - 66.2 °F 88% 29.95 in 1.9 mi Variable 2.3 mph - N/A   Mist
5:30 AM 69.8 °F - 66.2 °F 88% 29.95 in 1.9 mi Variable 2.3 mph - N/A   Mist
6:00 AM 69.8 °F - 66.2 °F 88% 29.95 in 1.6 mi Variable 2.3 mph - N/A   Mist
7:00 AM 68.0 °F - 64.4 °F 88% 29.98 in 1.2 mi Calm Calm - N/A   Mist
7:30 AM 69.8 °F - 64.4 °F 83% 29.98 in 1.2 mi Calm Calm - N/A   Mist
8:00 AM 71.6 °F - 66.2 °F 83% 30.01 in 1.6 mi Calm Calm - N/A   Mist
8:30 AM 74 °F - 70 °F 85% 30.03 in 1 mi Calm Calm - -   Mist
10:30 AM 84.2 °F 85.6 °F 64.4 °F 51% 30.01 in 2.8 mi NNW 3.5 mph - N/A   Haze
11:30 AM 86.0 °F 88.2 °F 66.2 °F 51% 29.98 in 3.1 mi NW 4.6 mph - N/A   Haze
12:00 PM 87.8 °F 90.4 °F 66.2 °F 49% 29.98 in 3.1 mi NW 5.8 mph - N/A   Unknown
12:30 PM 87.8 °F 90.4 °F 66.2 °F 49% 29.95 in 3.1 mi WNW 6.9 mph - N/A   Haze
1:00 PM 87.8 °F 89.4 °F 64.4 °F 46% 29.95 in 3.7 mi NW 9.2 mph - N/A   Unknown
1:30 PM 89.6 °F 91.1 °F 64.4 °F 43% 29.95 in 3.7 mi NNW 8.1 mph - N/A   Unknown
2:00 PM 89.6 °F 91.1 °F 64.4 °F 43% 29.92 in 3.7 mi NW 8.1 mph - N/A   Unknown
2:30 PM 89.6 °F 91.1 °F 64.4 °F 43% 29.89 in 3.7 mi NW 6.9 mph - N/A   Unknown
3:00 PM 89.6 °F 91.1 °F 64.4 °F 43% 29.89 in 3.7 mi NW 6.9 mph - N/A   Unknown
5:00 PM 87.8 °F 89.4 °F 64.4 °F 46% 29.89 in 3.7 mi NW 4.6 mph - N/A   Unknown
6:00 PM 80.6 °F 83.2 °F 68.0 °F 65% 29.89 in 3.1 mi Variable 2.3 mph - N/A   Haze
6:30 PM 78.8 °F - 66.2 °F 65% 29.89 in 2.8 mi Variable 2.3 mph - N/A   Haze
7:00 PM 78.8 °F - 66.2 °F 65% 29.89 in 2.8 mi NW 3.5 mph - N/A   Haze
7:30 PM 77.0 °F - 66.2 °F 69% 29.92 in 2.5 mi Variable 2.3 mph - N/A   Haze
8:00 PM 75.2 °F - 64.4 °F 69% 29.92 in 2.5 mi Variable 2.3 mph - N/A   Haze
8:30 PM 73.4 °F - 68.0 °F 83% 29.92 in 2.5 mi Calm Calm - N/A   Haze
10:00 PM 71.6 °F - 66.2 °F 83% 29.92 in 2.5 mi Calm Calm - N/A   Haze
11:00 PM 69.8 °F - 66.2 °F 88% 29.92 in 2.5 mi Calm Calm - N/A   Haze